Temp
62 62 62 62 62 63 63 63 63 63 63 63 63 63 63 62 62 66 75 87 87 84 80 95 98 98 98 94 95 89 66 66 64 70 75 89 85 91 94 86 87 88 83 85 89
62 62 62 62 62 62 62 62 62 62 62 62 63 63 63 63 66 76 87 85 86 81 94 93 92 96 90 91 94 80 71 78 77 83 78 82 84 81 84 83 80 82 87 89 89
62 61 61 61 62 62 62 62 62 62 62 62 62 63 63 62 68 82 83 87 84 82 95 97 97 95 89 93 93 84 80 87 84 90 84 80 84 82 79 79 81 78 82 86 85
61 61 61 61 61 61 62 62 61 61 61 62 63 63 63 64 67 91 82 83 84 91 94 94 92 86 84 84 94 87 94 91 89 88 83 79 79 81 82 81 87 85 86 85 83
60 60 60 60 61 61 61 61 60 60 61 62 63 64 63 68 77 93 82 83 90 92 92 91 88 87 83 87 91 88 90 93 93 90 86 86 81 78 81 86 89 88 87 84 82
60 60 60 60 60 60 60 60 59 60 60 63 64 63 62 66 96 96 93 89 95 90 91 93 91 94 90 90 89 93 92 91 91 88 89 85 79 81 82 88 88 86 84 84 84
59 59 59 59 59 60 59 59 59 60 60 63 64 68 71 75 100 93 93 88 92 93 90 97 98 91 91 86 96 94 84 90 88 88 85 87 78 78 85 88 85 85 85 86 85
59 59 59 59 59 59 58 58 59 60 61 63 64 66 64 95 94 96 95 91 95 95 96 98 100 93 88 91 91 84 81 71 82 85 86 80 68 81 86 84 82 85 86 86 84
59 59 59 59 58 58 57 57 60 62 62 64 61 62 70 95 90 96 98 94 93 93 95 106 98 88 88 78 73 76 67 71 76 84 85 77 71 82 86 84 81 83 85 85 84
58 58 58 58 57 57 56 58 64 62 64 73 77 68 77 85 93 98 98 99 92 92 92 90 84 77 76 70 62 68 71 74 74 82 84 77 73 81 84 83 82 83 83 83 83
58 58 57 57 57 56 55 63 66 65 72 74 75 80 88 93 98 95 99 94 91 84 75 82 72 67 75 79 82 81 79 75 81 87 80 76 76 80 83 83 81 79 80 81 82
58 57 57 57 56 55 53 64 78 84 74 88 89 88 94 95 88 93 98 86 82 74 80 75 69 81 87 86 84 82 79 73 80 87 79 75 76 81 81 82 83 82 81 82 82
58 57 57 56 55 57 68 76 89 88 72 80 87 87 89 93 88 87 90 88 80 76 78 73 78 89 86 84 83 79 75 77 75 82 84 77 68 67 80 80 84 85 85 84 82
57 57 56 55 59 68 73 86 91 90 60 71 78 85 90 92 84 98 96 88 82 77 80 78 87 86 84 82 83 68 84 85 83 75 63 75 55 61 70 74 82 83 83 84 83
57 57 55 53 54 63 79 81 85 79 46 82 82 98 90 84 86 88 98 89 79 81 78 76 81 82 81 84 86 78 86 82 80 71 66 70 61 66 69 67 77 81 84 86 84
57 56 55 61 55 63 73 78 77 57 51 78 87 84 82 85 86 91 90 91 90 83 83 81 91 87 85 90 89 89 80 76 75 66 55 65 63 58 65 71 81 84 86 87 86
55 54 53 59 61 77 72 72 55 52 77 76 79 84 81 77 82 84 81 78 73 66 67 79 82 88 91 79 84 80 65 55 52 53 54 67 65 62 77 82 80 81 80 83 88
54 53 54 62 60 64 66 61 49 68 68 80 80 83 77 81 79 82 79 74 80 77 67 65 65 81 90 80 75 73 68 56 50 51 59 72 60 67 83 84 82 87 84 85 87
53 63 70 71 69 71 62 53 56 66 77 78 80 76 75 82 80 79 76 76 79 80 68 67 69 87 89 89 84 74 65 74 62 62 57 62 68 76 81 80 82 85 84 82 83
51 58 68 82 77 70 58 54 66 77 79 79 69 75 71 77 77 75 75 82 81 85 85 75 63 81 87 89 88 77 80 63 60 50 50 61 63 62 69 73 79 78 80 81 84
54 62 81 85 80 64 55 61 71 79 80 73 71 73 76 75 78 75 76 83 86 85 87 81 69 75 82 75 73 71 68 66 65 60 53 52 57 70 73 76 77 79 82 81 86
59 57 83 84 62 64 61 68 68 78 83 80 80 78 77 77 74 75 76 82 91 89 79 83 68 67 75 82 87 79 73 68 56 56 58 57 61 80 78 80 79 80 82 81 82
50 61 80 82 59 62 69 73 77 77 77 78 78 82 82 74 66 75 78 91 91 87 81 82 73 63 64 77 83 78 77 72 69 64 57 55 59 77 79 79 79 79 79 80 82
53 55 67 69 73 67 65 67 71 82 79 81 80 80 78 72 75 71 77 88 92 90 82 80 69 64 59 68 77 72 78 75 69 58 59 61 66 70 74 75 78 79 80 80 80
56 59 64 57 62 60 64 67 68 70 80 80 77 76 74 68 71 71 79 79 86 85 83 81 63 67 71 78 79 80 79 78 69 67 61 66 68 69 73 77 78 82 83 82 80
56 55 59 55 60 62 63 65 68 73 75 71 69 80 77 69 68 65 72 72 73 76 80 74 64 66 65 76 79 76 82 79 80 78 73 72 70 74 83 78 77 81 80 79 77
60 63 56 54 58 59 64 64 73 76 77 74 73 71 73 73 78 75 77 79 75 72 71 71 66 61 57 69 71 63 72 75 77 82 78 69 71 73 73 75 74 76 80 79 78
MSLP
1016.69 1016.18 1015.69 1015.21 1014.74 1014.24 1013.62 1013.10 1012.42 1011.82 1011.39 1011.15 1010.81 1010.44 1010.16 1009.60 1008.80 1008.53 1006.91 1004.37 1003.58 1002.81 1003.74 1003.57 1003.07 1002.57 1002.44 1002.34 1002.60 1003.89 1005.35 1006.42 1007.45 1006.24 1005.66 1003.94 1004.29 1004.74 1004.97 1006.63 1007.53 1008.33 1009.34 1010.52 1011.23
1016.81 1016.28 1015.66 1015.10 1014.55 1014.16 1013.71 1013.06 1012.51 1011.85 1011.29 1010.89 1010.60 1010.20 1009.99 1009.60 1008.71 1006.40 1003.23 1003.07 1002.78 1002.97 1003.54 1003.20 1002.59 1001.87 1001.68 1001.22 1001.82 1002.97 1003.35 1002.77 1005.09 1005.26 1004.67 1004.49 1005.04 1005.75 1005.99 1006.95 1008.00 1008.98 1009.87 1010.42 1011.21
1017.04 1016.46 1015.86 1015.16 1014.53 1013.96 1013.57 1013.06 1012.54 1011.95 1011.30 1010.89 1010.49 1010.13 1009.85 1009.67 1008.16 1003.41 1001.50 1002.00 1002.32 1002.93 1003.13 1002.86 1002.33 1001.88 1001.17 1000.45 1000.09 1001.50 1002.27 1001.87 1002.78 1003.80 1004.12 1004.41 1005.65 1006.52 1006.33 1007.30 1007.74 1008.75 1009.86 1010.44 1011.45
1017.23 1016.67 1016.02 1015.29 1014.57 1013.97 1013.41 1012.93 1012.39 1011.98 1011.40 1010.81 1010.42 1010.05 1009.74 1009.30 1006.29 1001.79 1001.21 1001.24 1001.89 1002.89 1003.07 1002.46 1001.91 1001.60 1000.96 1000.13 998.79 999.84 1000.13 1000.91 1002.70 1003.29 1004.39 1005.33 1006.15 1006.31 1005.87 1007.64 1007.99 1009.05 1009.93 1010.53 1011.23
1017.15 1016.57 1016.02 1015.36 1014.54 1013.86 1013.26 1012.71 1012.18 1011.71 1011.32 1010.75 1010.34 1009.99 1009.53 1008.19 1004.14 1001.26 1001.57 1001.69 1002.26 1002.83 1002.63 1002.13 1001.54 1001.04 1000.36 999.72 998.68 999.31 1000.04 1000.82 1001.87 1003.10 1004.18 1005.15 1005.90 1006.52 1006.94 1007.48 1008.16 1009.22 1010.07 1010.80 1011.39
1017.18 1016.49 1015.77 1015.09 1014.43 1013.64 1013.04 1012.45 1011.95 1011.42 1011.08 1010.60 1010.30 1010.17 1009.46 1006.51 1001.37 1000.72 1001.55 1001.98 1001.86 1002.27 1002.06 1001.53 1000.80 1000.22 999.95 999.62 998.96 999.24 999.78 1000.67 1001.62 1002.52 1003.52 1004.57 1006.43 1006.48 1007.44 1007.69 1008.39 1009.34 1010.12 1010.71 1011.20
1017.17 1016.43 1015.68 1014.86 1014.08 1013.37 1012.68 1012.10 1011.53 1011.01 1010.75 1010.46 1010.27 1009.87 1008.21 1003.71 1000.37 1000.94 1001.14 1001.34 1001.40 1001.33 1001.52 1000.68 1000.35 1000.31 999.76 999.60 998.59 999.18 1000.14 1001.07 1001.63 1002.53 1003.85 1004.56 1006.59 1007.14 1007.48 1007.79 1008.56 1009.34 1009.92 1010.42 1010.87
1017.12 1016.35 1015.50 1014.69 1013.77 1012.98 1012.20 1011.48 1010.84 1010.32 1010.28 1010.18 1010.20 1009.42 1006.41 1001.20 1000.74 1001.16 1000.78 1001.17 1001.21 1000.98 1000.66 1000.01 999.76 999.90 999.94 999.42 998.99 999.77 1000.47 1001.58 1002.10 1002.70 1003.94 1004.25 1006.64 1007.39 1007.66 1008.22 1008.82 1009.32 1009.58 1010.02 1010.56
1016.97 1016.23 1015.39 1014.44 1013.53 1012.66 1011.78 1010.57 1009.80 1009.34 1009.71 1009.92 1009.91 1008.65 1004.43 1000.20 1000.39 1000.07 999.86 1000.63 1001.03 1000.86 1000.51 1000.07 999.97 1000.01 999.80 1000.09 1000.11 1000.16 1001.02 1001.97 1003.00 1002.58 1003.27 1004.15 1006.51 1006.77 1007.50 1008.06 1008.57 1008.87 1009.22 1009.75 1010.35
1016.83 1016.00 1015.16 1014.24 1013.28 1012.48 1011.41 1009.54 1008.96 1008.97 1009.26 1009.06 1008.34 1007.32 1003.28 1000.15 999.58 999.69 999.57 999.94 1000.74 1000.81 1000.71 1000.46 1000.33 1000.14 1000.26 1000.66 1000.59 1000.62 1001.13 1002.01 1002.31 1002.87 1003.16 1004.31 1005.68 1006.55 1007.11 1007.71 1008.12 1008.42 1008.94 1009.55 1010.07
1016.68 1015.76 1014.83 1013.81 1012.89 1012.64 1011.50 1009.76 1008.95 1008.46 1007.23 1006.08 1004.72 1003.35 1000.77 999.32 999.21 999.37 999.52 999.92 1000.37 1000.75 1000.99 1000.60 1000.91 1000.70 1000.39 1000.04 999.93 1000.02 1000.41 1001.40 1002.33 1002.43 1002.95 1004.10 1005.47 1006.09 1006.75 1007.31 1007.88 1008.33 1008.46 1009.08 1009.69
1016.51 1015.61 1014.60 1013.43 1012.19 1011.96 1012.23 1010.12 1006.42 1004.99 1004.13 1003.31 1002.24 1001.15 999.84 999.08 999.13 998.93 999.09 999.81 1000.17 1000.57 1000.82 1000.97 1000.68 1000.23 999.87 999.66 999.21 999.36 1000.21 1000.54 1000.66 1001.67 1002.42 1003.99 1005.30 1005.60 1006.06 1006.63 1006.76 1007.61 1008.11 1008.52 1009.16
1016.30 1015.45 1014.42 1013.09 1011.43 1010.60 1009.87 1007.81 1005.15 1004.52 1004.17 1000.85 1000.45 999.68 998.56 998.26 997.98 998.27 998.63 999.21 999.91 1000.39 1000.47 1000.54 1000.27 999.75 999.54 998.99 998.82 998.81 999.43 999.90 1000.37 1001.34 1002.44 1004.15 1005.86 1006.16 1005.22 1005.39 1006.44 1006.54 1007.48 1008.22 1008.58
1016.06 1015.27 1014.50 1013.22 1010.86 1009.97 1008.21 1006.22 1005.10 1004.03 1003.47 999.12 997.40 997.34 997.59 997.45 997.19 997.47 998.18 998.75 999.29 999.83 1000.16 1000.09 999.60 999.15 998.89 998.64 998.23 998.32 998.38 998.69 1000.32 1001.11 1003.24 1003.72 1006.04 1006.60 1006.16 1005.93 1006.05 1006.10 1006.69 1007.30 1008.29
1015.76 1015.08 1014.51 1014.62 1012.99 1010.42 1007.16 1006.41 1005.57 1004.76 1003.13 996.10 995.30 994.75 995.84 996.69 996.96 996.84 997.56 998.26 998.65 999.03 999.60 999.15 998.73 998.33 998.04 997.65 997.52 997.94 998.14 998.77 999.73 1001.37 1002.07 1003.40 1004.40 1005.02 1006.29 1006.26 1005.67 1005.74 1006.03 1006.49 1007.23
1015.18 1014.68 1014.51 1012.72 1012.83 1009.13 1007.82 1006.66 1005.72 1005.38 1001.12 996.04 994.36 994.88 996.12 996.59 996.86 996.73 997.28 998.01 998.29 998.78 998.68 998.44 997.78 997.51 997.26 997.09 997.11 997.61 998.33 999.38 1000.12 1001.46 1002.55 1002.84 1003.72 1005.23 1005.08 1004.27 1003.73 1003.43 1005.00 1005.49 1006.42
1014.57 1013.62 1014.19 1013.61 1009.96 1007.32 1007.67 1006.87 1006.25 1003.94 999.55 996.13 994.78 994.71 995.54 996.16 996.59 996.67 997.11 997.84 998.09 998.61 998.32 998.00 997.34 996.76 996.45 996.74 997.10 997.67 999.04 1000.49 1001.73 1002.38 1002.75 1002.34 1002.74 1002.63 1002.50 1002.50 1002.90 1003.54 1003.73 1004.21 1004.89
1013.94 1012.35 1010.58 1009.46 1008.52 1008.99 1008.28 1007.35 1005.44 1002.10 999.77 995.98 996.33 995.28 995.16 995.61 996.12 996.37 996.70 997.36 997.75 998.18 998.34 998.05 997.24 996.25 995.65 996.09 997.01 997.84 999.04 1000.49 1001.77 1002.77 1002.65 1001.74 1001.72 1000.77 1000.56 1000.93 1001.74 1002.26 1002.46 1003.36 1004.38
1013.15 1010.25 1008.46 1006.15 1007.32 1007.76 1007.87 1006.51 1003.54 1001.21 998.55 997.58 996.34 995.64 995.00 994.73 995.15 995.91 996.01 996.48 996.99 997.26 997.87 997.49 996.84 995.62 995.28 995.17 996.20 997.48 998.36 999.30 1001.26 1002.02 1002.59 1001.30 1000.25 999.59 1000.13 1000.88 1001.44 1001.89 1002.54 1003.03 1003.67
1013.33 1010.13 1006.07 1004.10 1005.69 1006.74 1006.77 1004.48 1002.04 999.94 998.97 998.26 997.04 995.99 995.11 994.13 994.32 994.91 995.14 995.36 995.78 996.23 996.50 996.52 996.91 995.28 994.79 994.93 995.53 996.41 997.62 999.40 1000.92 1002.58 1002.80 1001.68 1000.80 1000.38 1000.52 1000.61 1000.99 1001.70 1002.22 1002.48 1002.92
1012.74 1008.85 1002.92 1003.16 1004.50 1005.58 1004.78 1002.90 1000.99 999.61 999.26 998.58 997.01 995.56 994.54 993.97 993.23 993.77 993.99 994.05 994.34 994.99 995.36 995.80 996.64 995.19 994.68 994.70 995.44 996.45 997.39 999.10 1000.69 1001.94 1002.63 1002.08 1001.77 1000.02 1000.12 1000.39 1000.74 1000.89 1001.08 1001.56 1002.41
1012.21 1008.15 1003.16 1003.21 1004.31 1004.04 1003.28 1001.93 1000.32 999.06 998.27 997.20 996.32 995.23 994.27 993.83 993.62 993.24 992.69 992.47 992.79 993.60 994.21 994.63 995.44 995.64 994.76 994.16 994.72 995.77 996.90 998.57 1000.50 1001.66 1001.89 1001.68 1001.00 999.37 999.58 999.87 1000.09 1000.49 1000.97 1001.07 1001.59
1013.42 1008.38 1003.93 1002.95 1003.23 1002.97 1002.15 1001.01 999.72 998.71 997.72 996.79 995.80 994.73 993.79 993.81 993.98 993.22 992.43 991.27 991.36 992.25 992.95 993.77 994.94 995.61 994.93 994.60 994.34 995.26 996.42 997.48 998.69 999.99 1001.43 1001.79 1001.22 1000.01 999.61 999.87 1000.04 1000.53 1000.88 1001.03 1001.56
1013.78 1008.66 1004.64 1003.23 1002.76 1002.57 1001.95 1000.67 999.17 997.84 997.15 996.29 995.45 994.49 994.33 994.01 993.76 993.21 992.29 991.04 990.56 991.11 991.72 992.95 994.01 994.63 994.73 994.20 994.39 995.18 995.75 996.56 997.82 999.63 1000.37 1000.58 1000.60 1000.20 1000.28 1000.19 1000.15 1000.38 1000.79 1001.17 1001.49
1013.21 1009.03 1007.37 1005.50 1004.08 1003.99 1002.57 1000.99 999.26 997.59 996.51 995.93 995.32 994.67 995.12 994.78 994.22 993.36 992.27 991.28 990.30 990.20 991.44 992.53 993.95 994.17 994.09 993.97 993.98 994.43 995.00 995.81 997.01 998.02 999.41 999.50 999.88 999.77 999.70 1000.16 1000.07 999.98 1000.40 1001.03 1001.37
1012.18 1010.58 1009.23 1007.83 1005.83 1004.30 1002.33 1000.79 999.16 997.64 996.80 996.18 996.39 994.95 995.15 995.07 995.07 994.27 993.35 992.38 991.52 990.77 991.28 992.10 993.74 994.07 994.48 994.28 994.30 994.65 994.72 995.68 996.20 996.89 997.39 997.89 998.63 997.91 997.49 998.68 999.54 999.96 1000.37 1000.66 1001.10
1013.08 1011.68 1010.57 1008.14 1006.32 1005.17 1002.56 1001.34 999.14 998.16 996.68 997.70 996.92 995.64 994.96 995.39 995.36 994.26 993.61 993.00 992.25 991.81 991.80 992.49 993.85 994.86 995.50 995.14 995.10 995.23 994.65 995.11 995.70 995.58 996.05 996.97 997.39 997.24 998.39 999.24 999.73 1000.07 1000.10 1000.47 1000.89
Wind_Speed
21 21 21 21 21 21 21 20 21 22 22 19 18 16 15 15 18 4 7 12 7 13 4 6 10 13 12 13 7 4 3 5 15 16 5 14 18 11 19 21 12 7 19 17 18
22 22 23 23 22 21 21 21 20 21 21 20 17 16 13 13 5 11 13 11 9 7 4 7 12 12 10 9 13 7 5 5 21 11 15 14 12 5 6 19 20 21 15 14 17
23 23 23 23 23 23 21 21 21 21 21 19 15 13 12 11 5 10 5 21 11 9 5 10 15 19 15 15 14 10 11 22 10 13 16 10 5 3 9 14 22 24 20 13 18
22 22 23 24 24 24 22 21 21 21 20 18 14 12 12 5 4 3 7 17 14 8 6 8 10 12 10 14 5 10 14 16 13 24 15 8 5 2 11 6 21 20 18 9 8
23 22 22 23 24 24 22 21 21 21 18 17 12 10 6 4 14 3 8 9 7 5 10 13 14 11 13 7 4 8 10 15 17 20 18 18 7 6 5 6 21 20 16 13 8
22 22 22 22 23 23 22 21 21 21 17 13 9 7 3 7 9 10 9 7 8 7 9 14 10 11 12 13 7 4 9 13 13 17 16 19 9 8 7 7 20 19 15 13 11
23 23 23 23 24 25 24 23 23 21 15 10 7 5 6 19 2 8 12 8 10 9 10 14 14 9 11 10 7 5 9 13 10 20 19 22 12 10 12 14 14 14 14 13 13
23 24 24 24 25 25 24 24 24 21 14 8 6 4 10 10 17 13 11 9 10 10 13 13 11 11 6 8 3 5 7 6 9 11 12 13 10 12 11 12 11 13 13 12 10
23 24 24 25 25 25 26 30 25 15 9 6 5 3 11 9 5 11 9 11 10 10 11 15 11 8 9 5 4 5 6 13 5 5 8 8 14 16 14 13 13 13 12 11 8
23 24 25 25 25 24 27 29 4 2 5 7 9 4 8 10 8 10 7 10 10 11 12 10 5 4 5 2 7 7 5 14 11 11 8 11 9 17 17 15 14 12 11 12 9
24 25 26 27 26 21 15 7 3 1 5 10 8 9 18 9 8 9 12 11 11 7 9 8 3 7 12 12 12 10 11 9 6 10 7 8 17 18 17 14 10 8 11 13 11
24 24 26 28 29 22 6 4 8 10 15 14 20 23 23 21 10 13 13 12 10 9 8 6 9 13 16 17 11 10 11 13 13 13 9 10 16 17 11 12 17 13 12 14 12
24 24 26 28 33 9 7 12 15 20 9 23 23 20 21 17 12 12 10 12 8 9 12 11 10 19 20 17 12 12 8 15 13 13 9 10 4 2 6 10 14 17 15 11 13
24 24 23 30 6 7 7 12 18 11 4 13 11 18 18 19 9 16 14 12 8 15 14 11 15 21 20 18 11 7 6 6 12 20 10 11 6 5 13 12 15 18 17 14 16
24 23 22 13 11 6 7 16 17 4 5 9 10 10 10 19 8 11 17 12 14 10 9 14 16 18 20 16 8 8 8 6 6 4 5 11 6 13 13 12 7 13 18 17 20
26 23 21 9 6 13 14 17 2 2 10 9 12 13 17 13 15 8 19 12 10 12 14 12 13 15 16 12 11 6 3 5 7 1 1 7 9 5 15 18 19 15 20 18 21
28 27 15 8 8 1 9 5 1 7 8 7 16 20 20 10 18 18 20 18 16 11 11 13 20 16 15 8 9 5 4 2 3 2 7 8 6 11 21 19 21 20 15 14 24
30 34 11 11 11 11 3 1 7 12 24 17 18 9 17 17 16 19 17 17 18 16 6 9 13 19 15 10 11 8 10 7 6 4 8 10 6 5 21 22 21 18 17 13 20
32 5 8 8 14 4 2 6 7 13 18 19 19 15 12 19 12 18 15 19 18 19 14 10 14 13 12 6 10 11 6 10 5 5 3 5 5 7 17 15 16 21 14 12 11
8 6 9 7 15 6 3 7 10 22 23 21 22 20 21 20 19 20 19 20 18 21 18 14 7 14 10 10 13 12 8 2 4 2 5 5 2 5 8 9 13 12 15 14 17
4 5 11 15 10 3 6 8 14 20 21 20 25 27 23 7 18 14 19 19 23 21 23 19 7 15 11 9 9 2 4 4 7 6 6 3 5 5 10 10 11 11 11 14 22
7 5 6 14 4 5 8 9 15 19 20 23 23 22 21 7 9 12 16 19 21 22 22 22 6 11 15 8 13 9 9 10 7 4 1 7 6 9 11 9 9 9 9 7 9
7 6 8 7 6 9 11 20 24 20 21 23 24 19 15 8 8 10 10 16 20 24 23 15 13 10 6 8 12 15 9 9 7 5 4 4 4 2 7 7 7 9 8 8 9
6 5 4 3 7 11 14 17 19 20 22 24 24 11 14 8 10 12 15 14 21 23 25 13 7 10 8 10 11 11 13 8 9 6 6 7 7 5 6 5 10 9 8 9 8
5 5 7 6 7 17 14 15 22 22 19 15 15 8 15 13 13 10 13 7 15 23 20 14 8 7 8 7 3 9 6 8 8 9 9 8 10 11 11 8 9 9 6 5 6
5 5 6 10 10 13 12 15 19 22 16 12 18 13 19 7 4 6 10 6 6 4 16 7 7 5 2 2 5 6 15 15 17 13 7 8 8 13 16 10 7 8 8 5 2
6 7 2 7 8 9 10 23 15 19 14 16 15 5 8 7 7 6 8 12 8 3 5 10 7 5 5 1 6 7 5 5 8 15 16 13 9 7 9 9 8 7 7 4 2
Wind_Direction
355 351 348 346 345 345 342 341 338 336 335 335 333 327 323 317 303 189 232 225 209 233 119 269 271 238 227 252 207 107 122 121 175 239 317 97 123 134 120 136 160 192 139 150 148
352 350 345 343 341 342 340 337 336 334 332 332 332 327 324 328 283 247 227 217 214 139 211 255 270 260 241 232 214 138 249 141 181 152 106 100 90 66 89 113 109 118 123 144 131
350 347 344 340 339 338 338 334 332 331 328 329 324 324 322 317 286 247 191 211 197 162 258 283 284 290 274 266 254 178 210 118 153 115 112 106 111 252 86 120 137 136 141 155 139
348 345 341 338 335 334 333 330 328 328 326 324 323 322 326 269 264 11 354 185 179 166 240 259 263 267 266 273 225 82 93 111 133 110 106 121 129 88 127 146 130 133 142 144 146
345 341 338 334 331 329 328 326 323 324 323 320 318 328 309 243 248 246 100 106 137 163 223 237 254 260 261 292 124 103 103 102 110 117 128 141 121 120 123 104 126 136 145 149 156
341 338 335 331 329 326 324 320 318 318 318 315 315 327 268 254 248 173 154 158 194 191 219 240 247 255 275 284 105 108 126 123 131 114 109 96 116 97 232 158 132 143 152 163 162
338 336 333 329 326 324 320 317 313 309 307 300 304 277 256 242 239 167 163 189 204 201 231 240 253 276 283 304 114 146 115 123 102 118 117 110 97 106 123 126 136 148 161 170 168
335 333 330 328 324 322 319 313 306 298 289 274 277 263 251 258 236 239 187 189 227 243 234 259 257 260 264 307 132 136 129 121 143 119 154 111 141 136 136 142 151 164 174 175 168
333 330 328 325 322 321 319 310 304 284 257 250 235 206 264 274 211 241 188 183 210 248 257 256 273 253 316 295 252 158 197 128 130 172 148 109 144 155 165 163 167 181 175 156 150
330 328 325 323 321 323 320 301 272 312 209 221 265 334 251 232 172 217 216 210 192 230 247 244 272 232 286 278 203 189 219 151 151 201 165 127 155 164 172 169 181 182 155 151 158
328 326 323 320 317 325 338 340 296 213 232 221 188 231 298 238 186 189 208 216 200 218 210 237 215 238 242 247 252 201 182 126 220 210 136 151 151 170 177 170 173 172 158 160 165
326 324 322 318 313 314 283 248 235 286 303 276 269 248 259 261 210 191 190 194 200 205 202 228 216 241 245 251 227 240 155 181 224 182 123 168 162 175 150 178 175 176 178 174 172
323 323 323 320 312 296 225 257 295 297 281 279 251 260 244 253 201 184 186 193 194 211 212 214 214 236 244 256 240 246 176 208 166 178 153 123 160 121 235 168 203 175 178 185 166
321 322 326 329 312 345 283 327 337 354 302 263 217 224 245 233 199 182 197 191 196 206 221 218 235 228 240 251 227 245 270 283 160 148 176 178 195 206 207 239 201 177 180 181 161
318 319 321 322 302 288 315 335 313 355 290 237 207 174 184 214 191 193 186 207 219 195 198 218 224 229 237 246 239 215 260 243 264 193 164 187 108 222 178 243 193 184 182 182 167
314 315 323 309 208 247 301 301 279 298 252 288 157 161 183 199 212 211 181 210 237 232 225 233 221 230 229 241 255 234 211 288 252 153 50 215 150 183 179 196 205 174 184 182 170
312 306 296 282 233 348 349 310 189 228 294 257 154 160 177 179 198 225 182 193 216 204 236 222 238 247 233 203 235 186 144 285 352 1 223 253 259 196 195 187 193 207 184 190 174
313 305 255 209 223 261 244 246 232 238 238 284 316 203 183 190 196 223 189 192 220 234 216 218 242 235 236 198 193 201 164 156 193 197 242 246 233 239 184 191 190 204 201 177 179
316 272 254 220 210 228 150 217 207 241 257 260 282 278 207 194 176 204 210 196 205 223 225 206 241 253 220 166 167 227 182 191 183 237 324 233 174 21 166 197 195 206 204 193 192
309 279 252 191 156 160 175 239 232 244 271 284 283 289 288 206 192 190 221 193 199 215 225 250 216 235 214 169 238 156 154 213 345 213 286 280 245 196 148 155 165 187 203 204 199
252 276 274 139 148 165 219 228 236 258 273 277 281 289 289 307 197 196 213 194 197 204 223 234 210 258 176 191 190 124 163 165 166 152 187 267 260 217 149 155 164 175 167 187 202
301 271 145 132 169 205 235 250 260 268 272 279 276 270 277 316 311 229 215 194 190 201 223 224 196 237 210 183 173 194 177 163 125 272 223 150 262 156 151 159 134 143 140 142 146
293 277 275 229 220 243 253 244 259 260 263 274 280 263 273 278 310 297 305 216 190 193 221 215 231 243 292 201 185 197 214 172 150 121 236 124 252 202 144 149 138 129 152 157 160
278 288 239 247 252 251 269 279 270 251 260 268 278 299 315 299 273 278 290 285 204 195 209 193 220 170 201 204 169 198 208 176 160 144 222 204 165 196 60 123 125 129 140 169 180
240 264 4 315 312 325 307 297 275 281 269 277 277 296 293 296 301 273 276 336 319 191 200 199 198 194 213 245 268 207 195 209 206 208 160 224 154 181 154 167 149 131 121 154 191
298 349 341 294 279 279 274 281 260 267 272 291 336 216 250 301 3 340 354 23 255 307 186 187 190 125 111 359 241 249 197 211 235 215 244 237 220 194 187 137 150 155 177 172 215
345 337 281 291 304 309 308 315 285 256 274 308 317 299 286 29 300 301 294 285 270 296 212 136 128 101 161 4 339 329 272 228 246 212 205 224 220 131 116 119 135 131 112 109 237